�������l�o���
Date,Time,MP-1(��Sv/h),MP-2(��Sv/h),MP-3(��Sv/h),MP-4(��Sv/h),MP-5(��Sv/h),MP-6(��Sv/h),MP-7(��Sv/h),MP-8(��Sv/h),����,����(m/s),���J
2017/08/05,00:00,0.971,1.529,1.014,1.819,1.259,0.520,0.954,0.880,��,2.3,��
2017/08/05,00:10,0.975,1.527,1.011,1.815,1.257,0.522,0.954,0.880,��,1.7,��
2017/08/05,00:20,0.974,1.530,1.012,1.817,1.260,0.523,0.955,0.882,��쓌,0.9,��
2017/08/05,00:30,0.973,1.528,1.011,1.816,1.259,0.522,0.955,0.881,��,1.4,��
2017/08/05,00:40,0.974,1.528,1.013,1.817,1.260,0.523,0.954,0.881,��,1.1,��
2017/08/05,00:50,0.973,1.527,1.015,1.816,1.261,0.521,0.953,0.880,��,1.5,��
2017/08/05,01:00,0.976,1.527,1.010,1.817,1.261,0.524,0.954,0.880,��쐼,2.0,��
2017/08/05,01:10,0.973,1.528,1.012,1.818,1.261,0.522,0.952,0.881,��쐼,0.9,��
2017/08/05,01:20,0.976,1.528,1.012,1.817,1.261,0.521,0.954,0.881,-,CALM,��
2017/08/05,01:30,0.974,1.528,1.013,1.817,1.259,0.523,0.954,0.879,-,CALM,��
2017/08/05,01:40,0.973,1.526,1.012,1.819,1.259,0.522,0.954,0.883,�k�k��,1.1,��
2017/08/05,01:50,0.975,1.529,1.013,1.818,1.258,0.522,0.956,0.881,�k�k��,1.4,��
2017/08/05,02:00,0.973,1.523,1.012,1.816,1.256,0.522,0.955,0.881,�k��,0.9,��
2017/08/05,02:10,0.976,1.529,1.012,1.816,1.258,0.523,0.953,0.881,�k�k��,1.4,��
2017/08/05,02:20,0.974,1.526,1.014,1.817,1.259,0.521,0.953,0.880,�k�k��,1.4,��
2017/08/05,02:30,0.976,1.526,1.013,1.818,1.261,0.523,0.957,0.881,�k,0.6,��
2017/08/05,02:40,0.973,1.526,1.013,1.819,1.258,0.522,0.955,0.880,�k,1.2,��
2017/08/05,02:50,0.974,1.527,1.012,1.819,1.258,0.522,0.955,0.881,�k�k��,0.9,��
2017/08/05,03:00,0.972,1.527,1.013,1.817,1.260,0.522,0.952,0.880,�k�k��,1.2,��
2017/08/05,03:10,0.973,1.525,1.012,1.817,1.258,0.523,0.953,0.881,�k,1.1,��
2017/08/05,03:20,0.971,1.526,1.016,1.818,1.258,0.522,0.955,0.882,�k�k��,1.2,��
2017/08/05,03:30,0.972,1.529,1.014,1.815,1.258,0.523,0.954,0.880,�k�k��,1.4,��
2017/08/05,03:40,0.976,1.529,1.014,1.816,1.256,0.521,0.956,0.881,�k��,1.2,��
2017/08/05,03:50,0.973,1.526,1.010,1.815,1.260,0.521,0.952,0.882,�k��,0.6,��
2017/08/05,04:00,0.974,1.530,1.013,1.817,1.259,0.522,0.953,0.879,�k�k��,0.6,��
2017/08/05,04:10,0.974,1.528,1.014,1.818,1.259,0.521,0.955,0.879,���k��,0.6,��
2017/08/05,04:20,0.973,1.528,1.014,1.816,1.260,0.523,0.955,0.879,���k��,0.6,��
2017/08/05,04:30,0.974,1.526,1.016,1.817,1.260,0.522,0.953,0.881,-,CALM,��
2017/08/05,04:40,0.972,1.526,1.013,1.819,1.259,0.523,0.954,0.880,�k��,0.9,��
2017/08/05,04:50,0.974,1.526,1.015,1.821,1.260,0.523,0.956,0.881,�k��,0.9,��
2017/08/05,05:00,0.973,1.526,1.014,1.821,1.259,0.522,0.954,0.881,-,CALM,��
2017/08/05,05:10,0.972,1.530,1.012,1.818,1.259,0.522,0.955,0.882,�k,1.2,��
2017/08/05,05:20,0.976,1.528,1.014,1.818,1.257,0.522,0.955,0.881,�k,1.9,��
2017/08/05,05:30,0.976,1.528,1.014,1.818,1.258,0.521,0.955,0.882,�k�k��,1.5,��
2017/08/05,05:40,0.975,1.527,1.014,1.815,1.255,0.521,0.953,0.880,�k�k��,1.1,��
2017/08/05,05:50,0.974,1.528,1.013,1.818,1.260,0.522,0.956,0.880,�k�k��,1.2,��
2017/08/05,06:00,0.976,1.527,1.012,1.819,1.259,0.522,0.953,0.882,�k��,3.0,��
2017/08/05,06:10,0.976,1.528,1.013,1.818,1.261,0.523,0.954,0.882,�k��,2.3,��
2017/08/05,06:20,0.975,1.530,1.013,1.820,1.260,0.521,0.954,0.880,�k�k��,1.4,��
2017/08/05,06:30,0.975,1.527,1.013,1.820,1.262,0.521,0.953,0.880,�k�k��,1.1,��
2017/08/05,06:40,0.974,1.528,1.011,1.819,1.259,0.521,0.953,0.882,�k�k��,0.9,��
2017/08/05,06:50,0.974,1.527,1.011,1.819,1.260,0.522,0.955,0.879,�k�k��,0.8,��
2017/08/05,07:00,0.973,1.528,1.011,1.819,1.262,0.522,0.954,0.880,�k�k��,1.2,��
2017/08/05,07:10,0.974,1.524,1.009,1.818,1.260,0.522,0.955,0.880,�k,2.3,��
2017/08/05,07:20,0.972,1.525,1.010,1.820,1.259,0.519,0.954,0.880,�k�k��,2.0,��
2017/08/05,07:30,0.970,1.526,1.011,1.817,1.258,0.520,0.953,0.879,�k,0.8,��
2017/08/05,07:40,0.970,1.527,1.009,1.817,1.259,0.521,0.953,0.878,-,CALM,��
2017/08/05,07:50,0.971,1.524,1.009,1.818,1.259,0.520,0.953,0.878,�k�k��,0.9,��
2017/08/05,08:00,0.972,1.523,1.009,1.817,1.259,0.521,0.951,0.877,�k�k��,1.4,��
2017/08/05,08:10,0.972,1.522,1.010,1.816,1.258,0.519,0.953,0.878,�k,1.5,��
2017/08/05,08:20,0.972,1.524,1.010,1.816,1.261,0.521,0.953,0.878,�k�k��,1.2,��
2017/08/05,08:30,0.972,1.524,1.011,1.815,1.258,0.520,0.954,0.877,�k,2.0,��
2017/08/05,08:40,0.973,1.523,1.011,1.817,1.257,0.520,0.955,0.879,�k�k��,1.7,��
2017/08/05,08:50,0.973,1.523,1.009,1.811,1.262,0.521,0.954,0.878,�k,1.7,��
2017/08/05,09:00,0.972,1.525,1.007,1.818,1.259,0.521,0.954,0.878,�k�k��,2.3,��
2017/08/05,09:10,0.973,1.521,1.008,1.817,1.257,0.519,0.953,0.878,�k�k��,2.5,��
2017/08/05,09:20,0.975,1.524,1.009,1.816,1.258,0.521,0.955,0.877,�k��,2.3,��
2017/08/05,09:30,0.973,1.519,1.008,1.818,1.255,0.520,0.952,0.877,�k�k��,2.6,��
2017/08/05,09:40,0.973,1.519,1.009,1.817,1.258,0.520,0.953,0.879,�k�k��,2.6,��
2017/08/05,09:50,0.974,1.518,1.008,1.816,1.259,0.522,0.954,0.879,�k�k��,2.6,��
2017/08/05,10:00,0.973,1.523,1.010,1.818,1.259,0.520,0.955,0.876,�k��,2.2,��
2017/08/05,10:10,0.972,1.521,1.012,1.818,1.258,0.520,0.954,0.878,�k�k��,2.6,��
2017/08/05,10:20,0.974,1.520,1.012,1.818,1.259,0.520,0.956,0.880,�k�k��,2.9,��
2017/08/05,10:30,0.974,1.520,1.007,1.817,1.262,0.522,0.954,0.878,�k�k��,3.0,��
2017/08/05,10:40,0.974,1.524,1.010,1.819,1.262,0.521,0.954,0.877,�k��,2.9,��
2017/08/05,10:50,0.977,1.523,1.011,1.817,1.262,0.521,0.956,0.879,�k�k��,2.6,��
2017/08/05,11:00,0.976,1.525,1.010,1.820,1.262,0.521,0.955,0.879,�k��,2.6,��
2017/08/05,11:10,0.975,1.525,1.010,1.820,1.261,0.521,0.953,0.878,�k��,2.6,��
2017/08/05,11:20,0.977,1.527,1.010,1.817,1.261,0.520,0.954,0.880,�k��,2.2,��
2017/08/05,11:30,0.975,1.528,1.012,1.819,1.260,0.519,0.954,0.879,�k��,2.6,��
2017/08/05,11:40,0.975,1.527,1.014,1.819,1.262,0.521,0.955,0.879,�k�k��,1.7,��
2017/08/05,11:50,0.977,1.526,1.012,1.822,1.263,0.520,0.956,0.878,�k��,2.3,��
2017/08/05,12:00,0.978,1.531,1.011,1.820,1.263,0.522,0.954,0.878,�k�k��,3.3,��
2017/08/05,12:10,0.978,1.530,1.013,1.824,1.263,0.521,0.955,0.879,�k��,3.9,��
2017/08/05,12:20,0.976,1.531,1.012,1.821,1.264,0.521,0.957,0.879,�k��,4.5,��
2017/08/05,12:30,0.979,1.531,1.016,1.823,1.264,0.520,0.955,0.881,�k��,3.7,��
2017/08/05,12:40,0.980,1.534,1.015,1.819,1.267,0.521,0.955,0.880,�k��,2.6,��
2017/08/05,12:50,0.977,1.533,1.015,1.820,1.264,0.522,0.956,0.879,�k��,2.0,��
2017/08/05,13:00,0.977,1.532,1.014,1.824,1.264,0.523,0.955,0.879,�k��,2.0,��
2017/08/05,13:10,0.977,1.533,1.014,1.824,1.263,0.522,0.957,0.880,��,1.2,��
2017/08/05,13:20,0.979,1.534,1.015,1.824,1.266,0.524,0.956,0.881,�k�k��,1.7,��
2017/08/05,13:30,0.980,1.533,1.012,1.825,1.263,0.521,0.958,0.880,���k��,1.7,��
2017/08/05,13:40,0.976,1.533,1.016,1.826,1.266,0.522,0.955,0.878,���k��,1.7,��
2017/08/05,13:50,0.978,1.532,1.014,1.823,1.270,0.521,0.957,0.879,�k�k��,1.4,��
2017/08/05,14:00,0.979,1.530,1.015,1.823,1.269,0.524,0.954,0.879,�k��,1.5,��
2017/08/05,14:10,0.978,1.531,1.015,1.825,1.267,0.522,0.955,0.879,�k��,1.4,��
2017/08/05,14:20,0.979,1.533,1.016,1.824,1.267,0.523,0.956,0.881,�k��,1.5,��
2017/08/05,14:30,0.981,1.536,1.014,1.824,1.270,0.521,0.955,0.880,��,1.5,��
2017/08/05,14:40,0.981,1.536,1.017,1.825,1.268,0.522,0.957,0.879,���k��,1.7,��
2017/08/05,14:50,0.980,1.532,1.014,1.825,1.270,0.522,0.956,0.880,�k��,2.6,��
2017/08/05,15:00,0.980,1.537,1.018,1.822,1.268,0.523,0.957,0.879,�k��,1.7,��
2017/08/05,15:10,0.981,1.537,1.014,1.825,1.267,0.524,0.956,0.880,�k��,1.7,��
2017/08/05,15:20,0.980,1.537,1.014,1.825,1.270,0.523,0.956,0.880,�k��,2.3,��
2017/08/05,15:30,0.977,1.538,1.016,1.824,1.270,0.525,0.957,0.880,���k��,2.0,��
2017/08/05,15:40,0.980,1.536,1.015,1.820,1.271,0.524,0.955,0.880,���k��,2.2,��
2017/08/05,15:50,0.979,1.537,1.016,1.822,1.268,0.524,0.954,0.881,��,2.2,��
2017/08/05,16:00,0.981,1.537,1.015,1.826,1.269,0.523,0.957,0.880,�k��,2.3,��
2017/08/05,16:10,0.981,1.533,1.016,1.827,1.270,0.523,0.954,0.880,�k�k��,2.6,��
2017/08/05,16:20,0.980,1.535,1.014,1.824,1.269,0.524,0.957,0.878,�k��,2.6,��
2017/08/05,16:30,0.980,1.535,1.016,1.825,1.271,0.525,0.957,0.879,�k�k��,2.0,��
2017/08/05,16:40,0.978,1.536,1.018,1.826,1.268,0.523,0.956,0.880,�k�k��,2.3,��
2017/08/05,16:50,0.980,1.536,1.017,1.825,1.269,0.524,0.956,0.879,�k��,2.2,��
2017/08/05,17:00,0.979,1.538,1.018,1.826,1.269,0.524,0.958,0.878,�k��,2.0,��
2017/08/05,17:10,0.980,1.538,1.017,1.827,1.270,0.525,0.957,0.881,�k��,2.0,��
2017/08/05,17:20,0.977,1.538,1.019,1.824,1.271,0.528,0.955,0.880,���k��,1.2,��
2017/08/05,17:30,0.980,1.539,1.020,1.824,1.272,0.525,0.957,0.882,�k��,0.6,��
2017/08/05,17:40,0.979,1.539,1.017,1.826,1.269,0.527,0.958,0.881,���k��,0.9,��
2017/08/05,17:50,0.978,1.539,1.019,1.826,1.270,0.525,0.956,0.878,�k��,0.9,��
2017/08/05,18:00,0.979,1.538,1.019,1.824,1.270,0.525,0.958,0.884,�k��,1.2,��
2017/08/05,18:10,0.979,1.540,1.019,1.828,1.270,0.526,0.959,0.882,�k�k��,1.4,��
2017/08/05,18:20,0.982,1.538,1.018,1.826,1.268,0.524,0.958,0.882,�k,1.2,��
2017/08/05,18:30,0.981,1.536,1.019,1.829,1.269,0.525,0.959,0.883,�k��,1.2,��
2017/08/05,18:40,0.980,1.537,1.017,1.826,1.267,0.526,0.959,0.884,�k��,1.1,��
2017/08/05,18:50,0.980,1.539,1.019,1.824,1.269,0.525,0.957,0.882,�k�k��,1.2,��
2017/08/05,19:00,0.979,1.537,1.017,1.827,1.271,0.525,0.957,0.883,-,CALM,�L
2017/08/05,19:10,0.980,1.536,1.018,1.827,1.271,0.524,0.959,0.881,���k��,1.1,��
2017/08/05,19:20,0.978,1.537,1.019,1.827,1.269,0.525,0.958,0.883,�k��,0.9,��
2017/08/05,19:30,0.979,1.539,1.021,1.827,1.270,0.525,0.956,0.881,���k��,0.9,��
2017/08/05,19:40,0.981,1.538,1.018,1.826,1.272,0.525,0.957,0.882,���k��,1.5,��
2017/08/05,19:50,0.980,1.538,1.019,1.824,1.268,0.525,0.957,0.881,���k��,1.4,��
2017/08/05,20:00,0.980,1.536,1.019,1.829,1.270,0.525,0.960,0.881,���k��,0.9,�L
2017/08/05,20:10,0.981,1.536,1.018,1.827,1.271,0.526,0.959,0.880,�k��,1.1,�L
2017/08/05,20:20,0.980,1.536,1.019,1.828,1.270,0.525,0.960,0.881,���k��,1.2,��
2017/08/05,20:30,0.980,1.538,1.021,1.827,1.269,0.526,0.957,0.882,���k��,0.9,�L
2017/08/05,20:40,0.981,1.538,1.018,1.826,1.266,0.526,0.958,0.883,���k��,1.2,�L
2017/08/05,20:50,0.982,1.537,1.019,1.825,1.267,0.525,0.956,0.882,���k��,1.2,�L
2017/08/05,21:00,0.980,1.538,1.016,1.825,1.269,0.525,0.957,0.884,-,CALM,�L
2017/08/05,21:10,0.978,1.539,1.017,1.826,1.273,0.525,0.957,0.882,-,CALM,�L
2017/08/05,21:20,0.979,1.538,1.019,1.826,1.266,0.524,0.955,0.882,��,0.9,�L
2017/08/05,21:30,0.979,1.534,1.019,1.825,1.268,0.525,0.958,0.883,���k��,0.6,�L
2017/08/05,21:40,0.976,1.535,1.018,1.826,1.268,0.524,0.958,0.882,-,CALM,��
2017/08/05,21:50,0.981,1.536,1.020,1.827,1.268,0.526,0.959,0.881,-,CALM,��
2017/08/05,22:00,0.980,1.537,1.017,1.827,1.270,0.525,0.954,0.882,-,CALM,��
2017/08/05,22:10,0.978,1.536,1.019,1.824,1.269,0.525,0.957,0.883,-,CALM,��
2017/08/05,22:20,0.981,1.535,1.020,1.824,1.267,0.526,0.955,0.880,-,CALM,��
2017/08/05,22:30,0.979,1.537,1.017,1.824,1.268,0.526,0.956,0.882,-,CALM,��
2017/08/05,22:40,0.978,1.538,1.018,1.827,1.268,0.522,0.956,0.882,�k�k��,0.6,��
2017/08/05,22:50,0.980,1.538,1.019,1.826,1.268,0.526,0.958,0.881,-,CALM,�L
2017/08/05,23:00,0.978,1.538,1.020,1.824,1.270,0.526,0.959,0.882,-,CALM,�L
2017/08/05,23:10,0.979,1.535,1.017,1.825,1.268,0.524,0.955,0.883,���쓌,0.6,�L
2017/08/05,23:20,0.978,1.536,1.020,1.823,1.270,0.526,0.958,0.883,��,0.6,�L
2017/08/05,23:30,0.979,1.537,1.018,1.827,1.268,0.525,0.956,0.882,�k��,0.6,�L
2017/08/05,23:40,0.978,1.537,1.018,1.828,1.270,0.526,0.958,0.882,�k�k��,0.9,�L
2017/08/05,23:50,0.981,1.535,1.020,1.824,1.267,0.526,0.957,0.880,�k�k��,1.1,�L
